AAL1753 KATL-KCLT

Flight info

Callsign AAL1753
Flight time 0h 41m
Altitude 25000
Route PHIIL3 PHIIL CNTLR JONZE5
Aircraft A319/M-SDE3FGHIRWY/LB1

Departure

Time 2026-05-06 20:50
Airport Hartsfield Jackson Atlanta International Airport (KATL)

Arrival

Time 2026-05-06 21:31
Airport Charlotte Douglas International Airport (KCLT)
Time Latitude Longitude Altitude Speed Heading
2026-05-06 20:22 33.64263 -84.44196 1007 ft 0 kts 270°
2026-05-06 20:40 33.64262 -84.44174 1006 ft 4 kts 279°
2026-05-06 20:40 33.64255 -84.44143 1006 ft 4 kts 299°
2026-05-06 20:40 33.64238 -84.44120 1006 ft 4 kts 338°
2026-05-06 20:41 33.64228 -84.44116 1006 ft 0 kts 360°
2026-05-06 20:42 33.64230 -84.44116 1006 ft 1 kts 360°
2026-05-06 20:42 33.64243 -84.44116 1006 ft 4 kts
2026-05-06 20:43 33.64281 -84.44115 1006 ft 8 kts
2026-05-06 20:43 33.64348 -84.44115 1006 ft 12 kts 359°
2026-05-06 20:43 33.64439 -84.44111 1006 ft 13 kts 17°
2026-05-06 20:43 33.64499 -84.44019 1006 ft 17 kts 77°
2026-05-06 20:44 33.64519 -84.43866 1006 ft 19 kts 82°
2026-05-06 20:44 33.64537 -84.43709 1006 ft 19 kts 82°
2026-05-06 20:44 33.64542 -84.43553 1007 ft 19 kts 90°
2026-05-06 20:44 33.64541 -84.43396 1007 ft 19 kts 90°
2026-05-06 20:45 33.64542 -84.43239 1007 ft 19 kts 90°
2026-05-06 20:45 33.64542 -84.43076 1007 ft 20 kts 90°
2026-05-06 20:45 33.64542 -84.42911 1007 ft 20 kts 90°
2026-05-06 20:45 33.64541 -84.42744 1006 ft 20 kts 89°
2026-05-06 20:46 33.64542 -84.42574 1006 ft 20 kts 90°
2026-05-06 20:46 33.64541 -84.42403 1006 ft 21 kts 90°
2026-05-06 20:46 33.64542 -84.42231 1006 ft 21 kts 90°
2026-05-06 20:46 33.64542 -84.42060 1006 ft 21 kts 89°
2026-05-06 20:47 33.64542 -84.41889 1007 ft 20 kts 90°
2026-05-06 20:47 33.64542 -84.41720 1007 ft 20 kts 89°
2026-05-06 20:47 33.64543 -84.41551 1007 ft 21 kts 90°
2026-05-06 20:47 33.64542 -84.41371 1007 ft 22 kts 90°
2026-05-06 20:48 33.64542 -84.41190 1007 ft 22 kts 90°
2026-05-06 20:48 33.64542 -84.41009 1007 ft 22 kts 90°
2026-05-06 20:48 33.64548 -84.40826 1006 ft 22 kts 76°
2026-05-06 20:48 33.64569 -84.40645 1006 ft 20 kts 90°
2026-05-06 20:49 33.64619 -84.40566 1005 ft 14 kts
2026-05-06 20:49 33.64680 -84.40631 1004 ft 15 kts 270°
2026-05-06 20:49 33.64680 -84.40986 1007 ft 77 kts 270°
2026-05-06 20:49 33.64680 -84.41882 1007 ft 135 kts 270°
2026-05-06 20:50 33.64683 -84.43181 1181 ft 164 kts 268°
2026-05-06 20:50 33.64686 -84.44541 1876 ft 162 kts 266°
2026-05-06 20:50 33.64728 -84.45898 2536 ft 168 kts 276°
2026-05-06 20:50 33.65182 -84.47282 2954 ft 190 kts 288°
2026-05-06 20:51 33.65759 -84.48827 3296 ft 215 kts 288°
2026-05-06 20:51 33.66422 -84.50555 3710 ft 242 kts 293°
2026-05-06 20:51 33.67652 -84.52080 4332 ft 269 kts 324°
2026-05-06 20:51 33.69481 -84.52753 5248 ft 285 kts 352°
2026-05-06 20:52 33.71474 -84.52366 6193 ft 299 kts 18°
2026-05-06 20:52 33.73243 -84.50995 7068 ft 310 kts 42°
2026-05-06 20:52 33.74123 -84.49627 7630 ft 316 kts 60°
2026-05-06 20:52 33.74789 -84.47100 8452 ft 322 kts 87°
2026-05-06 20:53 33.74639 -84.44415 9275 ft 324 kts 101°
2026-05-06 20:53 33.74333 -84.41713 10105 ft 330 kts 101°
2026-05-06 20:53 33.74009 -84.38888 10485 ft 354 kts 101°
2026-05-06 20:53 33.73665 -84.35867 10846 ft 374 kts 101°
2026-05-06 20:54 33.73319 -84.32734 11493 ft 382 kts 100°
2026-05-06 20:54 33.72973 -84.29552 12218 ft 387 kts 100°
2026-05-06 20:54 33.72624 -84.26326 12937 ft 391 kts 100°
2026-05-06 20:54 33.72273 -84.23070 13650 ft 396 kts 100°
2026-05-06 20:55 33.71913 -84.19769 14277 ft 401 kts 100°
2026-05-06 20:55 33.71547 -84.16430 14881 ft 406 kts 100°
2026-05-06 20:55 33.71176 -84.13056 15476 ft 410 kts 99°
2026-05-06 20:55 33.70799 -84.09639 16069 ft 415 kts 99°
2026-05-06 20:56 33.70415 -84.06180 16651 ft 420 kts 99°
2026-05-06 20:56 33.70025 -84.02691 17242 ft 424 kts 99°
2026-05-06 20:56 33.69632 -83.99163 17834 ft 429 kts 99°
2026-05-06 20:56 33.69235 -83.95599 18402 ft 433 kts 99°
2026-05-06 20:57 33.68831 -83.91996 18909 ft 438 kts 99°
2026-05-06 20:57 33.68421 -83.88358 19422 ft 442 kts 99°
2026-05-06 20:57 33.68008 -83.84681 19938 ft 447 kts 99°
2026-05-06 20:57 33.67592 -83.80969 20463 ft 451 kts 99°
2026-05-06 20:58 33.67174 -83.77268 20987 ft 455 kts 99°
2026-05-06 20:58 33.66741 -83.73484 21501 ft 460 kts 99°
2026-05-06 20:58 33.66304 -83.69657 22020 ft 465 kts 98°
2026-05-06 20:58 33.66140 -83.65770 22510 ft 470 kts 87°
2026-05-06 20:59 33.66503 -83.61867 22999 ft 472 kts 76°
2026-05-06 20:59 33.67360 -83.58067 23485 ft 473 kts 67°
2026-05-06 20:59 33.68665 -83.54451 23898 ft 471 kts 57°
2026-05-06 20:59 33.70300 -83.51040 24306 ft 472 kts 54°
2026-05-06 21:00 33.71971 -83.47618 24715 ft 475 kts 54°
2026-05-06 21:00 33.73640 -83.44190 24931 ft 476 kts 54°
2026-05-06 21:00 33.75302 -83.40768 24989 ft 471 kts 55°
2026-05-06 21:00 33.76941 -83.37382 24993 ft 467 kts 55°
2026-05-06 21:01 33.78569 -83.34012 24992 ft 466 kts 55°
2026-05-06 21:01 33.80201 -83.30642 24991 ft 466 kts 55°
2026-05-06 21:01 33.81833 -83.27269 24987 ft 465 kts 55°
2026-05-06 21:01 33.83459 -83.23905 24991 ft 465 kts 55°
2026-05-06 21:02 33.85139 -83.20586 24996 ft 464 kts 53°
2026-05-06 21:02 33.86891 -83.17328 24992 ft 463 kts 51°
2026-05-06 21:02 33.88686 -83.14113 24992 ft 463 kts 51°
2026-05-06 21:02 33.90500 -83.10904 24982 ft 463 kts 51°
2026-05-06 21:03 33.92304 -83.07693 24989 ft 463 kts 51°
2026-05-06 21:03 33.94090 -83.04468 24994 ft 463 kts 51°
2026-05-06 21:03 33.95859 -83.01225 24987 ft 463 kts 52°
2026-05-06 21:03 33.97615 -82.97969 24993 ft 463 kts 52°
2026-05-06 21:04 33.99367 -82.94708 24993 ft 463 kts 52°
2026-05-06 21:04 34.01117 -82.91447 24987 ft 463 kts 52°
2026-05-06 21:04 34.02871 -82.88186 24987 ft 463 kts 51°
2026-05-06 21:04 34.04625 -82.84932 24988 ft 463 kts 51°
2026-05-06 21:05 34.06380 -82.81681 24980 ft 462 kts 51°
2026-05-06 21:05 34.08137 -82.78428 24985 ft 462 kts 51°
2026-05-06 21:05 34.09891 -82.75177 24982 ft 462 kts 51°
2026-05-06 21:05 34.11644 -82.71924 24979 ft 462 kts 51°
2026-05-06 21:06 34.13395 -82.68668 24977 ft 462 kts 51°
2026-05-06 21:06 34.15141 -82.65414 24977 ft 462 kts 51°
2026-05-06 21:06 34.16900 -82.62142 24983 ft 466 kts 51°
2026-05-06 21:06 34.18659 -82.58867 24983 ft 463 kts 51°
2026-05-06 21:07 34.20412 -82.55602 24983 ft 463 kts 51°
2026-05-06 21:07 34.22161 -82.52343 24983 ft 462 kts 51°
2026-05-06 21:07 34.23907 -82.49082 24987 ft 462 kts 51°
2026-05-06 21:07 34.25649 -82.45818 24983 ft 462 kts 51°
2026-05-06 21:08 34.27389 -82.42551 24986 ft 462 kts 51°
2026-05-06 21:08 34.29125 -82.39285 24985 ft 462 kts 51°
2026-05-06 21:08 34.30863 -82.36016 24988 ft 462 kts 51°
2026-05-06 21:08 34.32599 -82.32750 24987 ft 462 kts 51°
2026-05-06 21:09 34.34334 -82.29483 24985 ft 461 kts 51°
2026-05-06 21:09 34.36047 -82.26260 24983 ft 461 kts 51°
2026-05-06 21:09 34.37805 -82.22946 24981 ft 461 kts 51°
2026-05-06 21:09 34.39540 -82.19669 24973 ft 461 kts 51°
2026-05-06 21:10 34.41266 -82.16401 24973 ft 461 kts 51°
2026-05-06 21:10 34.42996 -82.13131 24979 ft 461 kts 51°
2026-05-06 21:10 34.44727 -82.09859 24984 ft 461 kts 51°
2026-05-06 21:10 34.46449 -82.06597 24912 ft 457 kts 51°
2026-05-06 21:11 34.48140 -82.03376 24678 ft 449 kts 51°
2026-05-06 21:11 34.49807 -82.00196 24452 ft 445 kts 51°
2026-05-06 21:11 34.51467 -81.97034 24227 ft 443 kts 51°
2026-05-06 21:11 34.53123 -81.93888 24005 ft 442 kts 51°
2026-05-06 21:12 34.54775 -81.90757 23785 ft 441 kts 51°
2026-05-06 21:12 34.56424 -81.87630 23560 ft 439 kts 51°
2026-05-06 21:12 34.58065 -81.84511 23300 ft 438 kts 51°
2026-05-06 21:12 34.59695 -81.81405 23038 ft 435 kts 51°
2026-05-06 21:13 34.61318 -81.78312 22770 ft 433 kts 51°
2026-05-06 21:13 34.62921 -81.75245 22424 ft 427 kts 51°
2026-05-06 21:13 34.64505 -81.72208 21959 ft 424 kts 51°
2026-05-06 21:13 34.66075 -81.69194 21511 ft 421 kts 52°
2026-05-06 21:14 34.67635 -81.66198 21072 ft 418 kts 52°
2026-05-06 21:14 34.69185 -81.63222 20604 ft 416 kts 52°
2026-05-06 21:14 34.70728 -81.60261 20144 ft 414 kts 52°
2026-05-06 21:14 34.72267 -81.57311 19677 ft 412 kts 52°
2026-05-06 21:15 34.73790 -81.54390 19469 ft 404 kts 52°
2026-05-06 21:15 34.75328 -81.51604 19345 ft 388 kts 45°
2026-05-06 21:15 34.77105 -81.49210 19083 ft 378 kts 39°
2026-05-06 21:15 34.78915 -81.46902 18676 ft 375 kts 39°
2026-05-06 21:16 34.80708 -81.44612 18072 ft 372 kts 40°
2026-05-06 21:16 34.82489 -81.42335 17447 ft 369 kts 40°
2026-05-06 21:16 34.84246 -81.40083 16899 ft 366 kts 40°
2026-05-06 21:16 34.85998 -81.37838 16494 ft 363 kts 40°
2026-05-06 21:17 34.87729 -81.35613 15957 ft 359 kts 40°
2026-05-06 21:17 34.89437 -81.33418 15512 ft 357 kts 40°
2026-05-06 21:17 34.91155 -81.31216 15131 ft 357 kts 41°
2026-05-06 21:17 34.92867 -81.29022 14684 ft 360 kts 41°
2026-05-06 21:18 34.94571 -81.26831 14321 ft 352 kts 41°
2026-05-06 21:18 34.96246 -81.24673 13801 ft 350 kts 41°
2026-05-06 21:18 34.97906 -81.22533 13269 ft 345 kts 41°
2026-05-06 21:18 34.99543 -81.20417 12752 ft 340 kts 42°
2026-05-06 21:19 35.01158 -81.18325 12309 ft 337 kts 41°
2026-05-06 21:19 35.02774 -81.16239 11877 ft 339 kts 41°
2026-05-06 21:19 35.04399 -81.14150 11506 ft 337 kts 41°
2026-05-06 21:19 35.06005 -81.12079 11020 ft 336 kts 42°
2026-05-06 21:20 35.07602 -81.10010 10607 ft 332 kts 42°
2026-05-06 21:20 35.09232 -81.08066 10378 ft 322 kts 32°
2026-05-06 21:20 35.11156 -81.06750 10257 ft 313 kts 13°
2026-05-06 21:20 35.13238 -81.06190 10118 ft 302 kts 356°
2026-05-06 21:21 35.18813 -81.06582 10015 ft 270 kts 347°
2026-05-06 21:21 35.20637 -81.06736 10017 ft 256 kts 347°
2026-05-06 21:22 35.22387 -81.06887 10020 ft 250 kts 346°
2026-05-06 21:22 35.24121 -81.07044 10021 ft 249 kts 346°
2026-05-06 21:22 35.25852 -81.07203 9979 ft 250 kts 346°
2026-05-06 21:22 35.27591 -81.07363 9661 ft 251 kts 347°
2026-05-06 21:23 35.29341 -81.07516 9324 ft 251 kts 347°
2026-05-06 21:23 35.31081 -81.07674 8993 ft 251 kts 347°
2026-05-06 21:23 35.32821 -81.07839 8660 ft 251 kts 347°
2026-05-06 21:23 35.34561 -81.08012 8343 ft 250 kts 347°
2026-05-06 21:24 35.36282 -81.08185 8010 ft 246 kts 347°
2026-05-06 21:24 35.37982 -81.08359 7634 ft 245 kts 347°
2026-05-06 21:24 35.39696 -81.08543 7159 ft 249 kts 346°
2026-05-06 21:24 35.41430 -81.08733 6679 ft 251 kts 346°
2026-05-06 21:25 35.43189 -81.08649 6187 ft 261 kts 10°
2026-05-06 21:25 35.44784 -81.07539 5722 ft 270 kts 43°
2026-05-06 21:25 35.45748 -81.05612 5412 ft 267 kts 73°
2026-05-06 21:25 35.46164 -81.03404 5103 ft 265 kts 81°
2026-05-06 21:26 35.46349 -81.01175 4782 ft 260 kts 101°
2026-05-06 21:26 35.45768 -80.99171 4527 ft 243 kts 130°
2026-05-06 21:26 35.44619 -80.97773 4287 ft 227 kts 155°
2026-05-06 21:26 35.43202 -80.97107 4128 ft 213 kts 178°
2026-05-06 21:27 35.41739 -80.96962 4038 ft 211 kts 182°
2026-05-06 21:27 35.40273 -80.96833 4005 ft 211 kts 183°
2026-05-06 21:27 35.38803 -80.96704 3821 ft 212 kts 183°
2026-05-06 21:27 35.37339 -80.96577 3558 ft 210 kts 183°
2026-05-06 21:28 35.35900 -80.96451 3313 ft 203 kts 183°
2026-05-06 21:28 35.34530 -80.96331 3056 ft 192 kts 182°
2026-05-06 21:28 35.33245 -80.96219 2819 ft 179 kts 182°
2026-05-06 21:28 35.32038 -80.96115 2585 ft 170 kts 184°
2026-05-06 21:29 35.30890 -80.96016 2368 ft 162 kts 182°
2026-05-06 21:29 35.29764 -80.95920 2151 ft 160 kts 181°
2026-05-06 21:29 35.28692 -80.95827 1957 ft 150 kts 181°
2026-05-06 21:29 35.27675 -80.95740 1756 ft 144 kts 181°
2026-05-06 21:30 35.26696 -80.95655 1575 ft 137 kts 181°
2026-05-06 21:30 35.25747 -80.95571 1371 ft 137 kts 181°
2026-05-06 21:30 35.24799 -80.95488 1193 ft 134 kts 183°
2026-05-06 21:30 35.23871 -80.95416 989 ft 134 kts 182°
2026-05-06 21:31 35.22937 -80.95335 821 ft 135 kts 180°
2026-05-06 21:31 35.22039 -80.95260 743 ft 117 kts 176°
2026-05-06 21:31 35.21398 -80.95206 738 ft 69 kts 175°
2026-05-06 21:31 35.21169 -80.95169 736 ft 16 kts 141°
2026-05-06 21:32 35.21153 -80.95065 734 ft 7 kts 86°
2026-05-06 21:32 35.21160 -80.94993 733 ft 6 kts 67°
2026-05-06 21:32 35.21212 -80.94986 733 ft 12 kts 356°
2026-05-06 21:33 35.21323 -80.94996 733 ft 20 kts 356°
2026-05-06 21:33 35.21461 -80.95007 733 ft 20 kts 355°
2026-05-06 21:33 35.21584 -80.94999 733 ft 15 kts 39°
2026-05-06 21:33 35.21609 -80.94864 733 ft 18 kts 86°
2026-05-06 21:34 35.21617 -80.94711 732 ft 18 kts 86°
2026-05-06 21:34 35.21626 -80.94555 732 ft 19 kts 86°
2026-05-06 21:34 35.21661 -80.94405 732 ft 19 kts 52°
2026-05-06 21:34 35.21751 -80.94314 731 ft 10 kts 57°
2026-05-06 21:35 35.21768 -80.94273 732 ft 1 kts 62°